Hourly Weather Roundup
Issued by NWS Central Illinois

Home | Current Version | Previous Version | Text Only | Print | Product List | Glossary On
Versions: 1 2 3 4 5 6 7 8 9 10 11 12 13 14 15 16 17 18 19 20 21 22 23 24 25 26 27 28 29 30 31 32 33 34 35 36 37 38 39 40 41 42 43 44 45 46 47 48 49 50
000
NZUS43 KILX 221110
HWRILX

AREA WEATHER ROUNDUP
NATIONAL WEATHER SERVICE, LINCOLN IL
600 AM CDT FRI AUG 22 2014


CITY           SKY/WX    TMP DP  RH WIND       PRES   REMARKS
BLOOMINGTON    TSTM      73  71  93 VRB3      29.99R FOG
CHAMPAIGN      CLOUDY    76  73  91 NW7       29.96R
DECATUR        PTCLDY    79  72  79 W10       29.95R HX  82
FLORA          PTCLDY    74  72  93 SW5       29.98R
GALESBURG      TSTM      74  73  95 W6        29.92R
JACKSONVILLE   CLEAR     77  72  86 SW5       29.96R
LACON          TSTM      72  67  85 S8        29.93F
LAWRENCEVILLE  PTCLDY    77  73  87 SW8       29.97R
LITCHFIELD     CLEAR     72  69  92 SW6       29.96R
$$


CITY           SKY/WX    TMP DP  RH WIND       PRES   REMARKS
LINCOLN        MOCLDY    79  73  80 NW5       29.94R HX  82
MACOMB         CLOUDY    76  74  92 NW3       29.96R THUNDER
MATTOON        MOCLDY    76  72  87 SW9       29.94R
MT CARMEL AP   PTCLDY    77  73  88 SW6       29.97R
OLNEY-NOBLE AP PTCLDY    73  72  94 CALM      29.98R
PARIS          CLOUDY    76  73  92 SW5       29.95R THUNDER
PEORIA         TSTM      76  69  79 SW7       29.92F
PONTIAC          N/A    N/A N/A N/A W8        29.97R
RANTOUL        CLOUDY    77  68  72 N7        29.98R THUNDER
ROBINSON       MOCLDY    78  74  88 SW13G18   29.96R HX  80
SPRINGFIELD    PTCLDY    77  72  84 SW6       29.95R
TAYLORVILLE    CLEAR     75  70  83 SW6       29.95R
$$

...REGIONAL REPORTS...


CITY           SKY/WX    TMP DP  RH WIND       PRES   REMARKS
CHICAGO O`HARE MOCLDY    73  69  87 S5        29.91S
KANKAKEE       CLOUDY    72  71  98 CALM      29.95S
MOLINE         CLOUDY    76  72  87 CALM      29.88S
MOUNT VERNON   CLEAR     73  68  83 CALM      29.99R
PITTSFIELD     PTCLDY    79  70  74 SW7       29.96R HX  81
QUINCY         PTCLDY    77  71  82 SW7       29.94R
ROCKFORD       CLOUDY    73  71  93 S7        29.93R FOG
$$


CITY           SKY/WX    TMP DP  RH WIND       PRES   REMARKS
BURLINGTON     CLOUDY    77  74  90 W7        29.93R
CEDAR RAPIDS   CLOUDY    72  72 100 CALM      29.87R FOG
DES MOINES     CLOUDY    74  68  81 S10       29.84S
KIRKSVILLE     TSTM      75  73  93 NW9       29.99R FOG
OTTUMWA        LGT RAIN  74  70  87 S14       29.85F
ST LOUIS       PTCLDY    80  69  69 W6        29.97  HX  83
$$


CITY           SKY/WX    TMP DP  RH WIND       PRES   REMARKS
TERRE HAUTE    CLOUDY    76  72  87 SW6       29.96R
EVANSVILLE     CLEAR     75  72  90 SW7       29.99R
INDIANAPOLIS   CLOUDY    75  72  90 SW13      29.95R
LAFAYETTE      RAIN      71  71 100 NE7       29.97R
MADISON        CLOUDY    73  71  93 SE3       29.91S FOG
MILWAUKEE      FOG       70  70 100 CALM      29.93F VSB 1/4
$$





USA.gov is the U.S. government's official web portal to all federal, state and local government web resources and services.